User: anonymous   Login
Location: *
(1.3500°S, 147.5000°W)
Time: 12:24:38
(UTC+00:00)
Language:

Okean 1-7 Rocket - Orbit

View from above orbital plane
View from above orbital plane
View from above satellite
View from above satellite

Ground track
Ground track

The orbit data is extracted from the following two-line orbital elements,

1 23318U 94066B   20190.78375858 +.00000048 +00000-0 +33652-5 0  9991
2 23318 082.5401 212.0942 0023782 175.4234 184.7201 14.78873760387571
Epoch (UTC): 08 July 2020 18:48:36
Eccentricity: 0.0023782
inclination: 82.5401°
perigee height: 616 km
apogee height: 649 km
right ascension of ascending node: 212.0942°
argument of perigee: 175.4234°
revolutions per day: 14.78873760
mean anomaly at epoch: 184.7201°
orbit number at epoch: 38757

The dashed part of the orbit path shows where the satellite is in the earth's shadow,  

DLR